Back to catalog

DELTA 1 DEB

AliveLEO
NORAD 7129·DEBRIS·🇺🇸 United States

Launched Nov 6, 1973 from Vandenberg Space Force Base

Loading…

Next Passes (next 24 hours)

TLE

FreshSource: Space-Track

Epoch: Sep 14, 2026, 08:12 UTC

1 07129U 73086CT  26257.34198427 -.00000209  00000-0 -18121-2 0  9991
2 07129 102.0162 107.1311 0243935 183.1163 352.7173 12.04471649318082

Track DELTA 1 DEB in real time with AllMySat

Download on the App Store